Tracking 29489 objects as of 9-Sep-2024
HD Live streaming from Space Station
objects crossing your sky now

FENGYUN 1C DEB

Track FENGYUN 1C DEB now!
10-day predictions


NORAD ID: 31926
Int'l Code: 1999-025CMD
Perigee: 793.0 km
Apogee: 857.2 km
Inclination: 99.0 °
Period: 101.3 minutes
Semi major axis: 7196 km
RCS: 0.0122 m2 (small)
Launch date: May 10, 1999
Source: People's Republic of China (PRC)
Launch site: Taiyaun Space Center, China (TSC)

Note: This is SATELLITE DEBRIS
Your satellite tracking list
Your tracking list is empty




NASA's NSSDC Master Catalog

Two Line Element Set (TLE):
1 31926U 99025CMD 24252.66161333  .00017126  00000-0  76463-2 0  9995
2 31926  98.9676 330.6664 0044599 148.3408 212.0465 14.22197778886656
Source of the keplerian elements: AFSPC